index,time,SiteAddr,SiteName,app,area,date,device_id,gps_alt,gps_fix,gps_lat,gps_lon,gps_num,name,s_d0,s_d1,s_d2,s_h0,s_t0,timestamp
0,14:44:21,[600]嘉義市東區小雅路419號,嘉義市立蘭潭國小(2017),AirBox,chiayi_city,2024-03-22,74DA38C7CEA6,2.0,1.0,23.474,120.47,9.0,嘉義市-蘭潭國小,30.0,36.0,22.0,74.0,25.12,2024-03-22T14:44:21Z
1,14:50:23,[600]嘉義市東區小雅路419號,嘉義市立蘭潭國小(2017),AirBox,chiayi_city,2024-03-22,74DA38C7CEA6,2.0,1.0,23.474,120.47,9.0,嘉義市-蘭潭國小,29.0,34.0,22.0,74.0,25.12,2024-03-22T14:50:23Z
2,14:56:26,[600]嘉義市東區小雅路419號,嘉義市立蘭潭國小(2017),AirBox,chiayi_city,2024-03-22,74DA38C7CEA6,2.0,1.0,23.474,120.47,9.0,嘉義市-蘭潭國小,29.0,35.0,22.0,74.0,25.12,2024-03-22T14:56:26Z
3,15:02:29,[600]嘉義市東區小雅路419號,嘉義市立蘭潭國小(2017),AirBox,chiayi_city,2024-03-22,74DA38C7CEA6,2.0,1.0,23.474,120.47,9.0,嘉義市-蘭潭國小,29.0,34.0,22.0,75.0,25.0,2024-03-22T15:02:29Z
4,15:08:32,[600]嘉義市東區小雅路419號,嘉義市立蘭潭國小(2017),AirBox,chiayi_city,2024-03-22,74DA38C7CEA6,2.0,1.0,23.474,120.47,9.0,嘉義市-蘭潭國小,30.0,35.0,22.0,75.0,25.12,2024-03-22T15:08:32Z
5,15:14:35,[600]嘉義市東區小雅路419號,嘉義市立蘭潭國小(2017),AirBox,chiayi_city,2024-03-22,74DA38C7CEA6,2.0,1.0,23.474,120.47,9.0,嘉義市-蘭潭國小,30.0,34.0,22.0,74.0,25.12,2024-03-22T15:14:35Z
6,15:20:38,[600]嘉義市東區小雅路419號,嘉義市立蘭潭國小(2017),AirBox,chiayi_city,2024-03-22,74DA38C7CEA6,2.0,1.0,23.474,120.47,9.0,嘉義市-蘭潭國小,30.0,36.0,22.0,75.0,25.0,2024-03-22T15:20:38Z
7,15:26:43,[600]嘉義市東區小雅路419號,嘉義市立蘭潭國小(2017),AirBox,chiayi_city,2024-03-22,74DA38C7CEA6,2.0,1.0,23.474,120.47,9.0,嘉義市-蘭潭國小,30.0,36.0,22.0,75.0,25.12,2024-03-22T15:26:43Z
8,15:32:43,[600]嘉義市東區小雅路419號,嘉義市立蘭潭國小(2017),AirBox,chiayi_city,2024-03-22,74DA38C7CEA6,2.0,1.0,23.474,120.47,9.0,嘉義市-蘭潭國小,29.0,33.0,22.0,75.0,25.0,2024-03-22T15:32:43Z
9,15:38:46,[600]嘉義市東區小雅路419號,嘉義市立蘭潭國小(2017),AirBox,chiayi_city,2024-03-22,74DA38C7CEA6,2.0,1.0,23.474,120.47,9.0,嘉義市-蘭潭國小,29.0,34.0,22.0,75.0,25.12,2024-03-22T15:38:46Z
10,15:44:48,[600]嘉義市東區小雅路419號,嘉義市立蘭潭國小(2017),AirBox,chiayi_city,2024-03-22,74DA38C7CEA6,2.0,1.0,23.474,120.47,9.0,嘉義市-蘭潭國小,29.0,34.0,22.0,75.0,25.12,2024-03-22T15:44:48Z
11,15:50:51,[600]嘉義市東區小雅路419號,嘉義市立蘭潭國小(2017),AirBox,chiayi_city,2024-03-22,74DA38C7CEA6,2.0,1.0,23.474,120.47,9.0,嘉義市-蘭潭國小,30.0,34.0,22.0,75.0,25.0,2024-03-22T15:50:51Z
12,15:56:53,[600]嘉義市東區小雅路419號,嘉義市立蘭潭國小(2017),AirBox,chiayi_city,2024-03-22,74DA38C7CEA6,2.0,1.0,23.474,120.47,9.0,嘉義市-蘭潭國小,29.0,34.0,22.0,75.0,25.0,2024-03-22T15:56:53Z
13,16:02:56,[600]嘉義市東區小雅路419號,嘉義市立蘭潭國小(2017),AirBox,chiayi_city,2024-03-22,74DA38C7CEA6,2.0,1.0,23.474,120.47,9.0,嘉義市-蘭潭國小,29.0,35.0,22.0,75.0,25.0,2024-03-22T16:02:56Z
14,16:08:58,[600]嘉義市東區小雅路419號,嘉義市立蘭潭國小(2017),AirBox,chiayi_city,2024-03-22,74DA38C7CEA6,2.0,1.0,23.474,120.47,9.0,嘉義市-蘭潭國小,30.0,35.0,22.0,75.0,25.0,2024-03-22T16:08:58Z
15,16:15:01,[600]嘉義市東區小雅路419號,嘉義市立蘭潭國小(2017),AirBox,chiayi_city,2024-03-22,74DA38C7CEA6,2.0,1.0,23.474,120.47,9.0,嘉義市-蘭潭國小,29.0,33.0,22.0,75.0,25.0,2024-03-22T16:15:01Z
16,16:21:02,[600]嘉義市東區小雅路419號,嘉義市立蘭潭國小(2017),AirBox,chiayi_city,2024-03-22,74DA38C7CEA6,2.0,1.0,23.474,120.47,9.0,嘉義市-蘭潭國小,29.0,34.0,22.0,75.0,25.0,2024-03-22T16:21:02Z
17,16:27:05,[600]嘉義市東區小雅路419號,嘉義市立蘭潭國小(2017),AirBox,chiayi_city,2024-03-22,74DA38C7CEA6,2.0,1.0,23.474,120.47,9.0,嘉義市-蘭潭國小,29.0,34.0,22.0,75.0,25.0,2024-03-22T16:27:05Z
18,16:33:06,[600]嘉義市東區小雅路419號,嘉義市立蘭潭國小(2017),AirBox,chiayi_city,2024-03-22,74DA38C7CEA6,2.0,1.0,23.474,120.47,9.0,嘉義市-蘭潭國小,29.0,33.0,22.0,75.0,25.0,2024-03-22T16:33:06Z
19,16:39:08,[600]嘉義市東區小雅路419號,嘉義市立蘭潭國小(2017),AirBox,chiayi_city,2024-03-22,74DA38C7CEA6,2.0,1.0,23.474,120.47,9.0,嘉義市-蘭潭國小,30.0,34.0,22.0,75.0,25.0,2024-03-22T16:39:08Z
20,16:45:11,[600]嘉義市東區小雅路419號,嘉義市立蘭潭國小(2017),AirBox,chiayi_city,2024-03-22,74DA38C7CEA6,2.0,1.0,23.474,120.47,9.0,嘉義市-蘭潭國小,29.0,33.0,22.0,75.0,25.0,2024-03-22T16:45:11Z
21,16:51:13,[600]嘉義市東區小雅路419號,嘉義市立蘭潭國小(2017),AirBox,chiayi_city,2024-03-22,74DA38C7CEA6,2.0,1.0,23.474,120.47,9.0,嘉義市-蘭潭國小,30.0,35.0,22.0,75.0,25.0,2024-03-22T16:51:13Z
22,16:57:16,[600]嘉義市東區小雅路419號,嘉義市立蘭潭國小(2017),AirBox,chiayi_city,2024-03-22,74DA38C7CEA6,2.0,1.0,23.474,120.47,9.0,嘉義市-蘭潭國小,30.0,35.0,22.0,75.0,25.0,2024-03-22T16:57:16Z
23,17:03:17,[600]嘉義市東區小雅路419號,嘉義市立蘭潭國小(2017),AirBox,chiayi_city,2024-03-22,74DA38C7CEA6,2.0,1.0,23.474,120.47,9.0,嘉義市-蘭潭國小,29.0,33.0,22.0,75.0,25.0,2024-03-22T17:03:17Z
24,17:09:19,[600]嘉義市東區小雅路419號,嘉義市立蘭潭國小(2017),AirBox,chiayi_city,2024-03-22,74DA38C7CEA6,2.0,1.0,23.474,120.47,9.0,嘉義市-蘭潭國小,30.0,34.0,23.0,75.0,25.0,2024-03-22T17:09:19Z
25,17:15:22,[600]嘉義市東區小雅路419號,嘉義市立蘭潭國小(2017),AirBox,chiayi_city,2024-03-22,74DA38C7CEA6,2.0,1.0,23.474,120.47,9.0,嘉義市-蘭潭國小,30.0,35.0,22.0,75.0,25.0,2024-03-22T17:15:22Z
26,17:21:23,[600]嘉義市東區小雅路419號,嘉義市立蘭潭國小(2017),AirBox,chiayi_city,2024-03-22,74DA38C7CEA6,2.0,1.0,23.474,120.47,9.0,嘉義市-蘭潭國小,29.0,34.0,22.0,75.0,25.0,2024-03-22T17:21:23Z
27,17:27:24,[600]嘉義市東區小雅路419號,嘉義市立蘭潭國小(2017),AirBox,chiayi_city,2024-03-22,74DA38C7CEA6,2.0,1.0,23.474,120.47,9.0,嘉義市-蘭潭國小,29.0,32.0,22.0,75.0,25.0,2024-03-22T17:27:24Z
28,17:33:29,[600]嘉義市東區小雅路419號,嘉義市立蘭潭國小(2017),AirBox,chiayi_city,2024-03-22,74DA38C7CEA6,2.0,1.0,23.474,120.47,9.0,嘉義市-蘭潭國小,29.0,35.0,22.0,76.0,25.12,2024-03-22T17:33:29Z
29,17:39:31,[600]嘉義市東區小雅路419號,嘉義市立蘭潭國小(2017),AirBox,chiayi_city,2024-03-22,74DA38C7CEA6,2.0,1.0,23.474,120.47,9.0,嘉義市-蘭潭國小,29.0,34.0,22.0,76.0,25.0,2024-03-22T17:39:31Z
30,17:45:33,[600]嘉義市東區小雅路419號,嘉義市立蘭潭國小(2017),AirBox,chiayi_city,2024-03-22,74DA38C7CEA6,2.0,1.0,23.474,120.47,9.0,嘉義市-蘭潭國小,29.0,33.0,22.0,75.0,25.0,2024-03-22T17:45:33Z
31,17:51:35,[600]嘉義市東區小雅路419號,嘉義市立蘭潭國小(2017),AirBox,chiayi_city,2024-03-22,74DA38C7CEA6,2.0,1.0,23.474,120.47,9.0,嘉義市-蘭潭國小,29.0,33.0,22.0,76.0,25.0,2024-03-22T17:51:35Z
32,17:57:36,[600]嘉義市東區小雅路419號,嘉義市立蘭潭國小(2017),AirBox,chiayi_city,2024-03-22,74DA38C7CEA6,2.0,1.0,23.474,120.47,9.0,嘉義市-蘭潭國小,29.0,32.0,22.0,76.0,25.0,2024-03-22T17:57:36Z
33,18:03:38,[600]嘉義市東區小雅路419號,嘉義市立蘭潭國小(2017),AirBox,chiayi_city,2024-03-22,74DA38C7CEA6,2.0,1.0,23.474,120.47,9.0,嘉義市-蘭潭國小,29.0,33.0,22.0,75.0,25.0,2024-03-22T18:03:38Z
34,18:09:41,[600]嘉義市東區小雅路419號,嘉義市立蘭潭國小(2017),AirBox,chiayi_city,2024-03-22,74DA38C7CEA6,2.0,1.0,23.474,120.47,9.0,嘉義市-蘭潭國小,29.0,34.0,22.0,75.0,25.0,2024-03-22T18:09:41Z
35,18:15:44,[600]嘉義市東區小雅路419號,嘉義市立蘭潭國小(2017),AirBox,chiayi_city,2024-03-22,74DA38C7CEA6,2.0,1.0,23.474,120.47,9.0,嘉義市-蘭潭國小,29.0,33.0,22.0,75.0,25.0,2024-03-22T18:15:44Z
36,18:21:47,[600]嘉義市東區小雅路419號,嘉義市立蘭潭國小(2017),AirBox,chiayi_city,2024-03-22,74DA38C7CEA6,2.0,1.0,23.474,120.47,9.0,嘉義市-蘭潭國小,28.0,31.0,22.0,75.0,25.0,2024-03-22T18:21:47Z
37,18:27:49,[600]嘉義市東區小雅路419號,嘉義市立蘭潭國小(2017),AirBox,chiayi_city,2024-03-22,74DA38C7CEA6,2.0,1.0,23.474,120.47,9.0,嘉義市-蘭潭國小,28.0,32.0,22.0,75.0,25.0,2024-03-22T18:27:49Z
38,18:33:51,[600]嘉義市東區小雅路419號,嘉義市立蘭潭國小(2017),AirBox,chiayi_city,2024-03-22,74DA38C7CEA6,2.0,1.0,23.474,120.47,9.0,嘉義市-蘭潭國小,28.0,32.0,21.0,75.0,25.0,2024-03-22T18:33:51Z
39,18:39:53,[600]嘉義市東區小雅路419號,嘉義市立蘭潭國小(2017),AirBox,chiayi_city,2024-03-22,74DA38C7CEA6,2.0,1.0,23.474,120.47,9.0,嘉義市-蘭潭國小,28.0,32.0,21.0,74.0,25.0,2024-03-22T18:39:53Z
40,18:45:54,[600]嘉義市東區小雅路419號,嘉義市立蘭潭國小(2017),AirBox,chiayi_city,2024-03-22,74DA38C7CEA6,2.0,1.0,23.474,120.47,9.0,嘉義市-蘭潭國小,28.0,30.0,21.0,74.0,25.0,2024-03-22T18:45:54Z
41,18:51:56,[600]嘉義市東區小雅路419號,嘉義市立蘭潭國小(2017),AirBox,chiayi_city,2024-03-22,74DA38C7CEA6,2.0,1.0,23.474,120.47,9.0,嘉義市-蘭潭國小,28.0,32.0,21.0,74.0,25.0,2024-03-22T18:51:56Z
42,18:57:58,[600]嘉義市東區小雅路419號,嘉義市立蘭潭國小(2017),AirBox,chiayi_city,2024-03-22,74DA38C7CEA6,2.0,1.0,23.474,120.47,9.0,嘉義市-蘭潭國小,27.0,30.0,21.0,74.0,25.0,2024-03-22T18:57:58Z
43,19:04:01,[600]嘉義市東區小雅路419號,嘉義市立蘭潭國小(2017),AirBox,chiayi_city,2024-03-22,74DA38C7CEA6,2.0,1.0,23.474,120.47,9.0,嘉義市-蘭潭國小,27.0,31.0,21.0,74.0,25.0,2024-03-22T19:04:01Z
44,19:10:04,[600]嘉義市東區小雅路419號,嘉義市立蘭潭國小(2017),AirBox,chiayi_city,2024-03-22,74DA38C7CEA6,2.0,1.0,23.474,120.47,9.0,嘉義市-蘭潭國小,27.0,32.0,21.0,74.0,24.87,2024-03-22T19:10:04Z
45,19:16:06,[600]嘉義市東區小雅路419號,嘉義市立蘭潭國小(2017),AirBox,chiayi_city,2024-03-22,74DA38C7CEA6,2.0,1.0,23.474,120.47,9.0,嘉義市-蘭潭國小,27.0,31.0,20.0,74.0,25.0,2024-03-22T19:16:06Z
46,19:22:08,[600]嘉義市東區小雅路419號,嘉義市立蘭潭國小(2017),AirBox,chiayi_city,2024-03-22,74DA38C7CEA6,2.0,1.0,23.474,120.47,9.0,嘉義市-蘭潭國小,26.0,29.0,20.0,74.0,25.0,2024-03-22T19:22:08Z
47,19:28:10,[600]嘉義市東區小雅路419號,嘉義市立蘭潭國小(2017),AirBox,chiayi_city,2024-03-22,74DA38C7CEA6,2.0,1.0,23.474,120.47,9.0,嘉義市-蘭潭國小,26.0,29.0,20.0,74.0,25.0,2024-03-22T19:28:10Z
48,19:34:11,[600]嘉義市東區小雅路419號,嘉義市立蘭潭國小(2017),AirBox,chiayi_city,2024-03-22,74DA38C7CEA6,2.0,1.0,23.474,120.47,9.0,嘉義市-蘭潭國小,26.0,30.0,21.0,74.0,25.0,2024-03-22T19:34:11Z
49,19:40:13,[600]嘉義市東區小雅路419號,嘉義市立蘭潭國小(2017),AirBox,chiayi_city,2024-03-22,74DA38C7CEA6,2.0,1.0,23.474,120.47,9.0,嘉義市-蘭潭國小,26.0,31.0,20.0,74.0,25.0,2024-03-22T19:40:13Z
50,19:46:16,[600]嘉義市東區小雅路419號,嘉義市立蘭潭國小(2017),AirBox,chiayi_city,2024-03-22,74DA38C7CEA6,2.0,1.0,23.474,120.47,9.0,嘉義市-蘭潭國小,26.0,30.0,20.0,74.0,25.0,2024-03-22T19:46:16Z
51,19:52:19,[600]嘉義市東區小雅路419號,嘉義市立蘭潭國小(2017),AirBox,chiayi_city,2024-03-22,74DA38C7CEA6,2.0,1.0,23.474,120.47,9.0,嘉義市-蘭潭國小,26.0,30.0,20.0,74.0,25.0,2024-03-22T19:52:19Z
52,19:58:21,[600]嘉義市東區小雅路419號,嘉義市立蘭潭國小(2017),AirBox,chiayi_city,2024-03-22,74DA38C7CEA6,2.0,1.0,23.474,120.47,9.0,嘉義市-蘭潭國小,25.0,29.0,19.0,74.0,25.0,2024-03-22T19:58:21Z
53,20:04:24,[600]嘉義市東區小雅路419號,嘉義市立蘭潭國小(2017),AirBox,chiayi_city,2024-03-22,74DA38C7CEA6,2.0,1.0,23.474,120.47,9.0,嘉義市-蘭潭國小,26.0,30.0,20.0,74.0,25.0,2024-03-22T20:04:24Z
54,20:10:27,[600]嘉義市東區小雅路419號,嘉義市立蘭潭國小(2017),AirBox,chiayi_city,2024-03-22,74DA38C7CEA6,2.0,1.0,23.474,120.47,9.0,嘉義市-蘭潭國小,25.0,27.0,19.0,74.0,24.87,2024-03-22T20:10:27Z
55,20:16:30,[600]嘉義市東區小雅路419號,嘉義市立蘭潭國小(2017),AirBox,chiayi_city,2024-03-22,74DA38C7CEA6,2.0,1.0,23.474,120.47,9.0,嘉義市-蘭潭國小,30.0,34.0,25.0,74.0,24.87,2024-03-22T20:16:30Z
56,20:22:32,[600]嘉義市東區小雅路419號,嘉義市立蘭潭國小(2017),AirBox,chiayi_city,2024-03-22,74DA38C7CEA6,2.0,1.0,23.474,120.47,9.0,嘉義市-蘭潭國小,25.0,27.0,19.0,74.0,25.0,2024-03-22T20:22:32Z
57,20:28:33,[600]嘉義市東區小雅路419號,嘉義市立蘭潭國小(2017),AirBox,chiayi_city,2024-03-22,74DA38C7CEA6,2.0,1.0,23.474,120.47,9.0,嘉義市-蘭潭國小,25.0,27.0,19.0,74.0,24.87,2024-03-22T20:28:33Z
58,20:34:36,[600]嘉義市東區小雅路419號,嘉義市立蘭潭國小(2017),AirBox,chiayi_city,2024-03-22,74DA38C7CEA6,2.0,1.0,23.474,120.47,9.0,嘉義市-蘭潭國小,24.0,29.0,19.0,74.0,25.0,2024-03-22T20:34:36Z
59,20:40:37,[600]嘉義市東區小雅路419號,嘉義市立蘭潭國小(2017),AirBox,chiayi_city,2024-03-22,74DA38C7CEA6,2.0,1.0,23.474,120.47,9.0,嘉義市-蘭潭國小,25.0,28.0,20.0,74.0,24.87,2024-03-22T20:40:37Z
60,20:46:39,[600]嘉義市東區小雅路419號,嘉義市立蘭潭國小(2017),AirBox,chiayi_city,2024-03-22,74DA38C7CEA6,2.0,1.0,23.474,120.47,9.0,嘉義市-蘭潭國小,24.0,27.0,19.0,74.0,24.87,2024-03-22T20:46:39Z
61,20:52:39,[600]嘉義市東區小雅路419號,嘉義市立蘭潭國小(2017),AirBox,chiayi_city,2024-03-22,74DA38C7CEA6,2.0,1.0,23.474,120.47,9.0,嘉義市-蘭潭國小,24.0,26.0,19.0,74.0,24.87,2024-03-22T20:52:39Z
62,20:58:42,[600]嘉義市東區小雅路419號,嘉義市立蘭潭國小(2017),AirBox,chiayi_city,2024-03-22,74DA38C7CEA6,2.0,1.0,23.474,120.47,9.0,嘉義市-蘭潭國小,24.0,27.0,19.0,74.0,24.87,2024-03-22T20:58:42Z
63,21:04:45,[600]嘉義市東區小雅路419號,嘉義市立蘭潭國小(2017),AirBox,chiayi_city,2024-03-22,74DA38C7CEA6,2.0,1.0,23.474,120.47,9.0,嘉義市-蘭潭國小,23.0,27.0,18.0,74.0,24.87,2024-03-22T21:04:45Z
64,21:10:47,[600]嘉義市東區小雅路419號,嘉義市立蘭潭國小(2017),AirBox,chiayi_city,2024-03-22,74DA38C7CEA6,2.0,1.0,23.474,120.47,9.0,嘉義市-蘭潭國小,23.0,26.0,18.0,74.0,24.87,2024-03-22T21:10:47Z
65,21:16:49,[600]嘉義市東區小雅路419號,嘉義市立蘭潭國小(2017),AirBox,chiayi_city,2024-03-22,74DA38C7CEA6,2.0,1.0,23.474,120.47,9.0,嘉義市-蘭潭國小,23.0,26.0,18.0,74.0,24.87,2024-03-22T21:16:49Z
66,21:22:50,[600]嘉義市東區小雅路419號,嘉義市立蘭潭國小(2017),AirBox,chiayi_city,2024-03-22,74DA38C7CEA6,2.0,1.0,23.474,120.47,9.0,嘉義市-蘭潭國小,23.0,26.0,18.0,75.0,24.87,2024-03-22T21:22:50Z
67,21:28:51,[600]嘉義市東區小雅路419號,嘉義市立蘭潭國小(2017),AirBox,chiayi_city,2024-03-22,74DA38C7CEA6,2.0,1.0,23.474,120.47,9.0,嘉義市-蘭潭國小,22.0,23.0,18.0,75.0,25.0,2024-03-22T21:28:51Z
68,21:34:53,[600]嘉義市東區小雅路419號,嘉義市立蘭潭國小(2017),AirBox,chiayi_city,2024-03-22,74DA38C7CEA6,2.0,1.0,23.474,120.47,9.0,嘉義市-蘭潭國小,23.0,25.0,18.0,75.0,24.87,2024-03-22T21:34:53Z
69,21:40:54,[600]嘉義市東區小雅路419號,嘉義市立蘭潭國小(2017),AirBox,chiayi_city,2024-03-22,74DA38C7CEA6,2.0,1.0,23.474,120.47,9.0,嘉義市-蘭潭國小,22.0,26.0,18.0,75.0,24.87,2024-03-22T21:40:54Z
70,21:46:56,[600]嘉義市東區小雅路419號,嘉義市立蘭潭國小(2017),AirBox,chiayi_city,2024-03-22,74DA38C7CEA6,2.0,1.0,23.474,120.47,9.0,嘉義市-蘭潭國小,22.0,25.0,18.0,75.0,25.0,2024-03-22T21:46:56Z
71,21:52:57,[600]嘉義市東區小雅路419號,嘉義市立蘭潭國小(2017),AirBox,chiayi_city,2024-03-22,74DA38C7CEA6,2.0,1.0,23.474,120.47,9.0,嘉義市-蘭潭國小,22.0,24.0,18.0,75.0,24.87,2024-03-22T21:52:57Z
72,21:58:59,[600]嘉義市東區小雅路419號,嘉義市立蘭潭國小(2017),AirBox,chiayi_city,2024-03-22,74DA38C7CEA6,2.0,1.0,23.474,120.47,9.0,嘉義市-蘭潭國小,22.0,25.0,18.0,75.0,24.87,2024-03-22T21:58:59Z
73,22:05:02,[600]嘉義市東區小雅路419號,嘉義市立蘭潭國小(2017),AirBox,chiayi_city,2024-03-22,74DA38C7CEA6,2.0,1.0,23.474,120.47,9.0,嘉義市-蘭潭國小,22.0,25.0,18.0,75.0,24.87,2024-03-22T22:05:02Z
74,22:11:03,[600]嘉義市東區小雅路419號,嘉義市立蘭潭國小(2017),AirBox,chiayi_city,2024-03-22,74DA38C7CEA6,2.0,1.0,23.474,120.47,9.0,嘉義市-蘭潭國小,22.0,24.0,18.0,75.0,24.87,2024-03-22T22:11:03Z
75,22:17:04,[600]嘉義市東區小雅路419號,嘉義市立蘭潭國小(2017),AirBox,chiayi_city,2024-03-22,74DA38C7CEA6,2.0,1.0,23.474,120.47,9.0,嘉義市-蘭潭國小,22.0,24.0,18.0,75.0,24.87,2024-03-22T22:17:04Z
76,22:23:06,[600]嘉義市東區小雅路419號,嘉義市立蘭潭國小(2017),AirBox,chiayi_city,2024-03-22,74DA38C7CEA6,2.0,1.0,23.474,120.47,9.0,嘉義市-蘭潭國小,22.0,24.0,17.0,75.0,24.87,2024-03-22T22:23:06Z
77,22:29:06,[600]嘉義市東區小雅路419號,嘉義市立蘭潭國小(2017),AirBox,chiayi_city,2024-03-22,74DA38C7CEA6,2.0,1.0,23.474,120.47,9.0,嘉義市-蘭潭國小,22.0,24.0,18.0,75.0,24.87,2024-03-22T22:29:06Z
78,22:35:07,[600]嘉義市東區小雅路419號,嘉義市立蘭潭國小(2017),AirBox,chiayi_city,2024-03-22,74DA38C7CEA6,2.0,1.0,23.474,120.47,9.0,嘉義市-蘭潭國小,22.0,25.0,18.0,75.0,24.87,2024-03-22T22:35:07Z
79,22:41:08,[600]嘉義市東區小雅路419號,嘉義市立蘭潭國小(2017),AirBox,chiayi_city,2024-03-22,74DA38C7CEA6,2.0,1.0,23.474,120.47,9.0,嘉義市-蘭潭國小,22.0,24.0,18.0,75.0,24.87,2024-03-22T22:41:08Z
80,22:47:09,[600]嘉義市東區小雅路419號,嘉義市立蘭潭國小(2017),AirBox,chiayi_city,2024-03-22,74DA38C7CEA6,2.0,1.0,23.474,120.47,9.0,嘉義市-蘭潭國小,23.0,25.0,18.0,75.0,24.87,2024-03-22T22:47:09Z
81,22:53:09,[600]嘉義市東區小雅路419號,嘉義市立蘭潭國小(2017),AirBox,chiayi_city,2024-03-22,74DA38C7CEA6,2.0,1.0,23.474,120.47,9.0,嘉義市-蘭潭國小,23.0,25.0,18.0,75.0,24.87,2024-03-22T22:53:09Z
82,22:59:10,[600]嘉義市東區小雅路419號,嘉義市立蘭潭國小(2017),AirBox,chiayi_city,2024-03-22,74DA38C7CEA6,2.0,1.0,23.474,120.47,9.0,嘉義市-蘭潭國小,22.0,24.0,18.0,75.0,24.87,2024-03-22T22:59:10Z
83,23:05:12,[600]嘉義市東區小雅路419號,嘉義市立蘭潭國小(2017),AirBox,chiayi_city,2024-03-22,74DA38C7CEA6,2.0,1.0,23.474,120.47,9.0,嘉義市-蘭潭國小,22.0,25.0,18.0,75.0,24.87,2024-03-22T23:05:12Z
84,23:11:13,[600]嘉義市東區小雅路419號,嘉義市立蘭潭國小(2017),AirBox,chiayi_city,2024-03-22,74DA38C7CEA6,2.0,1.0,23.474,120.47,9.0,嘉義市-蘭潭國小,23.0,25.0,19.0,76.0,24.87,2024-03-22T23:11:13Z
85,23:17:14,[600]嘉義市東區小雅路419號,嘉義市立蘭潭國小(2017),AirBox,chiayi_city,2024-03-22,74DA38C7CEA6,2.0,1.0,23.474,120.47,9.0,嘉義市-蘭潭國小,24.0,26.0,19.0,76.0,24.87,2024-03-22T23:17:14Z
86,23:23:17,[600]嘉義市東區小雅路419號,嘉義市立蘭潭國小(2017),AirBox,chiayi_city,2024-03-22,74DA38C7CEA6,2.0,1.0,23.474,120.47,9.0,嘉義市-蘭潭國小,24.0,27.0,19.0,76.0,24.87,2024-03-22T23:23:17Z
87,23:29:19,[600]嘉義市東區小雅路419號,嘉義市立蘭潭國小(2017),AirBox,chiayi_city,2024-03-22,74DA38C7CEA6,2.0,1.0,23.474,120.47,9.0,嘉義市-蘭潭國小,25.0,28.0,19.0,76.0,24.87,2024-03-22T23:29:19Z
88,23:35:21,[600]嘉義市東區小雅路419號,嘉義市立蘭潭國小(2017),AirBox,chiayi_city,2024-03-22,74DA38C7CEA6,2.0,1.0,23.474,120.47,9.0,嘉義市-蘭潭國小,24.0,28.0,19.0,76.0,25.0,2024-03-22T23:35:21Z
89,23:41:24,[600]嘉義市東區小雅路419號,嘉義市立蘭潭國小(2017),AirBox,chiayi_city,2024-03-22,74DA38C7CEA6,2.0,1.0,23.474,120.47,9.0,嘉義市-蘭潭國小,25.0,29.0,20.0,76.0,25.0,2024-03-22T23:41:24Z
90,23:47:25,[600]嘉義市東區小雅路419號,嘉義市立蘭潭國小(2017),AirBox,chiayi_city,2024-03-22,74DA38C7CEA6,2.0,1.0,23.474,120.47,9.0,嘉義市-蘭潭國小,25.0,27.0,19.0,76.0,25.0,2024-03-22T23:47:25Z
91,23:53:27,[600]嘉義市東區小雅路419號,嘉義市立蘭潭國小(2017),AirBox,chiayi_city,2024-03-22,74DA38C7CEA6,2.0,1.0,23.474,120.47,9.0,嘉義市-蘭潭國小,24.0,26.0,19.0,76.0,25.0,2024-03-22T23:53:27Z
92,23:59:31,[600]嘉義市東區小雅路419號,嘉義市立蘭潭國小(2017),AirBox,chiayi_city,2024-03-22,74DA38C7CEA6,2.0,1.0,23.474,120.47,9.0,嘉義市-蘭潭國小,24.0,28.0,19.0,76.0,25.0,2024-03-22T23:59:31Z
93,00:05:32,[600]嘉義市東區小雅路419號,嘉義市立蘭潭國小(2017),AirBox,chiayi_city,2024-03-23,74DA38C7CEA6,2.0,1.0,23.474,120.47,9.0,嘉義市-蘭潭國小,24.0,26.0,19.0,76.0,25.0,2024-03-23T00:05:32Z
94,00:11:34,[600]嘉義市東區小雅路419號,嘉義市立蘭潭國小(2017),AirBox,chiayi_city,2024-03-23,74DA38C7CEA6,2.0,1.0,23.474,120.47,9.0,嘉義市-蘭潭國小,24.0,27.0,19.0,76.0,25.12,2024-03-23T00:11:34Z
95,00:17:36,[600]嘉義市東區小雅路419號,嘉義市立蘭潭國小(2017),AirBox,chiayi_city,2024-03-23,74DA38C7CEA6,2.0,1.0,23.474,120.47,9.0,嘉義市-蘭潭國小,24.0,26.0,19.0,76.0,25.12,2024-03-23T00:17:36Z
96,00:23:37,[600]嘉義市東區小雅路419號,嘉義市立蘭潭國小(2017),AirBox,chiayi_city,2024-03-23,74DA38C7CEA6,2.0,1.0,23.474,120.47,9.0,嘉義市-蘭潭國小,23.0,26.0,19.0,76.0,25.12,2024-03-23T00:23:37Z
97,00:29:37,[600]嘉義市東區小雅路419號,嘉義市立蘭潭國小(2017),AirBox,chiayi_city,2024-03-23,74DA38C7CEA6,2.0,1.0,23.474,120.47,9.0,嘉義市-蘭潭國小,24.0,25.0,19.0,76.0,25.12,2024-03-23T00:29:37Z
98,00:35:39,[600]嘉義市東區小雅路419號,嘉義市立蘭潭國小(2017),AirBox,chiayi_city,2024-03-23,74DA38C7CEA6,2.0,1.0,23.474,120.47,9.0,嘉義市-蘭潭國小,23.0,24.0,18.0,76.0,25.12,2024-03-23T00:35:39Z
99,00:41:41,[600]嘉義市東區小雅路419號,嘉義市立蘭潭國小(2017),AirBox,chiayi_city,2024-03-23,74DA38C7CEA6,2.0,1.0,23.474,120.47,9.0,嘉義市-蘭潭國小,23.0,26.0,19.0,76.0,25.25,2024-03-23T00:41:41Z
100,00:47:43,[600]嘉義市東區小雅路419號,嘉義市立蘭潭國小(2017),AirBox,chiayi_city,2024-03-23,74DA38C7CEA6,2.0,1.0,23.474,120.47,9.0,嘉義市-蘭潭國小,25.0,27.0,19.0,76.0,25.25,2024-03-23T00:47:43Z
101,00:53:44,[600]嘉義市東區小雅路419號,嘉義市立蘭潭國小(2017),AirBox,chiayi_city,2024-03-23,74DA38C7CEA6,2.0,1.0,23.474,120.47,9.0,嘉義市-蘭潭國小,25.0,28.0,20.0,76.0,25.37,2024-03-23T00:53:44Z
102,00:59:47,[600]嘉義市東區小雅路419號,嘉義市立蘭潭國小(2017),AirBox,chiayi_city,2024-03-23,74DA38C7CEA6,2.0,1.0,23.474,120.47,9.0,嘉義市-蘭潭國小,25.0,29.0,20.0,76.0,25.37,2024-03-23T00:59:47Z
103,01:05:50,[600]嘉義市東區小雅路419號,嘉義市立蘭潭國小(2017),AirBox,chiayi_city,2024-03-23,74DA38C7CEA6,2.0,1.0,23.474,120.47,9.0,嘉義市-蘭潭國小,24.0,27.0,19.0,76.0,25.5,2024-03-23T01:05:50Z
104,01:11:52,[600]嘉義市東區小雅路419號,嘉義市立蘭潭國小(2017),AirBox,chiayi_city,2024-03-23,74DA38C7CEA6,2.0,1.0,23.474,120.47,9.0,嘉義市-蘭潭國小,24.0,27.0,19.0,76.0,25.5,2024-03-23T01:11:52Z
105,01:17:55,[600]嘉義市東區小雅路419號,嘉義市立蘭潭國小(2017),AirBox,chiayi_city,2024-03-23,74DA38C7CEA6,2.0,1.0,23.474,120.47,9.0,嘉義市-蘭潭國小,23.0,27.0,19.0,76.0,25.5,2024-03-23T01:17:55Z
106,01:23:56,[600]嘉義市東區小雅路419號,嘉義市立蘭潭國小(2017),AirBox,chiayi_city,2024-03-23,74DA38C7CEA6,2.0,1.0,23.474,120.47,9.0,嘉義市-蘭潭國小,23.0,24.0,19.0,76.0,25.5,2024-03-23T01:23:56Z
107,01:29:58,[600]嘉義市東區小雅路419號,嘉義市立蘭潭國小(2017),AirBox,chiayi_city,2024-03-23,74DA38C7CEA6,2.0,1.0,23.474,120.47,9.0,嘉義市-蘭潭國小,21.0,25.0,18.0,76.0,25.62,2024-03-23T01:29:58Z
108,01:36:01,[600]嘉義市東區小雅路419號,嘉義市立蘭潭國小(2017),AirBox,chiayi_city,2024-03-23,74DA38C7CEA6,2.0,1.0,23.474,120.47,9.0,嘉義市-蘭潭國小,21.0,23.0,17.0,76.0,25.62,2024-03-23T01:36:01Z
109,01:42:02,[600]嘉義市東區小雅路419號,嘉義市立蘭潭國小(2017),AirBox,chiayi_city,2024-03-23,74DA38C7CEA6,2.0,1.0,23.474,120.47,9.0,嘉義市-蘭潭國小,20.0,22.0,16.0,76.0,25.62,2024-03-23T01:42:02Z
110,01:48:04,[600]嘉義市東區小雅路419號,嘉義市立蘭潭國小(2017),AirBox,chiayi_city,2024-03-23,74DA38C7CEA6,2.0,1.0,23.474,120.47,9.0,嘉義市-蘭潭國小,18.0,20.0,14.0,77.0,25.75,2024-03-23T01:48:04Z
111,01:54:06,[600]嘉義市東區小雅路419號,嘉義市立蘭潭國小(2017),AirBox,chiayi_city,2024-03-23,74DA38C7CEA6,2.0,1.0,23.474,120.47,9.0,嘉義市-蘭潭國小,16.0,20.0,13.0,77.0,25.75,2024-03-23T01:54:06Z
112,02:00:07,[600]嘉義市東區小雅路419號,嘉義市立蘭潭國小(2017),AirBox,chiayi_city,2024-03-23,74DA38C7CEA6,2.0,1.0,23.474,120.47,9.0,嘉義市-蘭潭國小,15.0,18.0,12.0,76.0,25.87,2024-03-23T02:00:07Z
113,02:06:07,[600]嘉義市東區小雅路419號,嘉義市立蘭潭國小(2017),AirBox,chiayi_city,2024-03-23,74DA38C7CEA6,2.0,1.0,23.474,120.47,9.0,嘉義市-蘭潭國小,15.0,17.0,12.0,76.0,25.87,2024-03-23T02:06:07Z
114,02:12:09,[600]嘉義市東區小雅路419號,嘉義市立蘭潭國小(2017),AirBox,chiayi_city,2024-03-23,74DA38C7CEA6,2.0,1.0,23.474,120.47,9.0,嘉義市-蘭潭國小,15.0,17.0,12.0,76.0,25.87,2024-03-23T02:12:09Z
115,02:18:10,[600]嘉義市東區小雅路419號,嘉義市立蘭潭國小(2017),AirBox,chiayi_city,2024-03-23,74DA38C7CEA6,2.0,1.0,23.474,120.47,9.0,嘉義市-蘭潭國小,14.0,17.0,12.0,76.0,25.87,2024-03-23T02:18:10Z
116,02:24:11,[600]嘉義市東區小雅路419號,嘉義市立蘭潭國小(2017),AirBox,chiayi_city,2024-03-23,74DA38C7CEA6,2.0,1.0,23.474,120.47,9.0,嘉義市-蘭潭國小,14.0,16.0,11.0,76.0,25.87,2024-03-23T02:24:11Z
117,02:30:12,[600]嘉義市東區小雅路419號,嘉義市立蘭潭國小(2017),AirBox,chiayi_city,2024-03-23,74DA38C7CEA6,2.0,1.0,23.474,120.47,9.0,嘉義市-蘭潭國小,14.0,16.0,12.0,76.0,26.0,2024-03-23T02:30:12Z
118,02:36:12,[600]嘉義市東區小雅路419號,嘉義市立蘭潭國小(2017),AirBox,chiayi_city,2024-03-23,74DA38C7CEA6,2.0,1.0,23.474,120.47,9.0,嘉義市-蘭潭國小,14.0,16.0,11.0,75.0,26.0,2024-03-23T02:36:12Z
119,02:42:15,[600]嘉義市東區小雅路419號,嘉義市立蘭潭國小(2017),AirBox,chiayi_city,2024-03-23,74DA38C7CEA6,2.0,1.0,23.474,120.47,9.0,嘉義市-蘭潭國小,13.0,16.0,11.0,75.0,26.0,2024-03-23T02:42:15Z
120,02:48:15,[600]嘉義市東區小雅路419號,嘉義市立蘭潭國小(2017),AirBox,chiayi_city,2024-03-23,74DA38C7CEA6,2.0,1.0,23.474,120.47,9.0,嘉義市-蘭潭國小,14.0,16.0,12.0,75.0,26.12,2024-03-23T02:48:15Z
121,02:54:16,[600]嘉義市東區小雅路419號,嘉義市立蘭潭國小(2017),AirBox,chiayi_city,2024-03-23,74DA38C7CEA6,2.0,1.0,23.474,120.47,9.0,嘉義市-蘭潭國小,14.0,15.0,11.0,75.0,26.12,2024-03-23T02:54:16Z
122,03:00:17,[600]嘉義市東區小雅路419號,嘉義市立蘭潭國小(2017),AirBox,chiayi_city,2024-03-23,74DA38C7CEA6,2.0,1.0,23.474,120.47,9.0,嘉義市-蘭潭國小,13.0,15.0,11.0,74.0,26.25,2024-03-23T03:00:17Z
123,03:06:17,[600]嘉義市東區小雅路419號,嘉義市立蘭潭國小(2017),AirBox,chiayi_city,2024-03-23,74DA38C7CEA6,2.0,1.0,23.474,120.47,9.0,嘉義市-蘭潭國小,13.0,14.0,10.0,73.0,26.25,2024-03-23T03:06:17Z
124,03:12:19,[600]嘉義市東區小雅路419號,嘉義市立蘭潭國小(2017),AirBox,chiayi_city,2024-03-23,74DA38C7CEA6,2.0,1.0,23.474,120.47,9.0,嘉義市-蘭潭國小,13.0,15.0,10.0,74.0,26.37,2024-03-23T03:12:19Z
125,03:18:19,[600]嘉義市東區小雅路419號,嘉義市立蘭潭國小(2017),AirBox,chiayi_city,2024-03-23,74DA38C7CEA6,2.0,1.0,23.474,120.47,9.0,嘉義市-蘭潭國小,12.0,14.0,10.0,73.0,26.37,2024-03-23T03:18:19Z
126,03:24:19,[600]嘉義市東區小雅路419號,嘉義市立蘭潭國小(2017),AirBox,chiayi_city,2024-03-23,74DA38C7CEA6,2.0,1.0,23.474,120.47,9.0,嘉義市-蘭潭國小,12.0,14.0,10.0,73.0,26.5,2024-03-23T03:24:19Z
127,03:30:21,[600]嘉義市東區小雅路419號,嘉義市立蘭潭國小(2017),AirBox,chiayi_city,2024-03-23,74DA38C7CEA6,2.0,1.0,23.474,120.47,9.0,嘉義市-蘭潭國小,12.0,15.0,10.0,73.0,26.5,2024-03-23T03:30:21Z
128,03:36:21,[600]嘉義市東區小雅路419號,嘉義市立蘭潭國小(2017),AirBox,chiayi_city,2024-03-23,74DA38C7CEA6,2.0,1.0,23.474,120.47,9.0,嘉義市-蘭潭國小,12.0,14.0,10.0,73.0,26.62,2024-03-23T03:36:21Z
129,03:42:23,[600]嘉義市東區小雅路419號,嘉義市立蘭潭國小(2017),AirBox,chiayi_city,2024-03-23,74DA38C7CEA6,2.0,1.0,23.474,120.47,9.0,嘉義市-蘭潭國小,12.0,15.0,10.0,72.0,26.62,2024-03-23T03:42:23Z
130,03:48:23,[600]嘉義市東區小雅路419號,嘉義市立蘭潭國小(2017),AirBox,chiayi_city,2024-03-23,74DA38C7CEA6,2.0,1.0,23.474,120.47,9.0,嘉義市-蘭潭國小,12.0,14.0,10.0,72.0,26.75,2024-03-23T03:48:23Z
131,03:54:24,[600]嘉義市東區小雅路419號,嘉義市立蘭潭國小(2017),AirBox,chiayi_city,2024-03-23,74DA38C7CEA6,2.0,1.0,23.474,120.47,9.0,嘉義市-蘭潭國小,12.0,13.0,10.0,72.0,26.75,2024-03-23T03:54:24Z
132,04:00:25,[600]嘉義市東區小雅路419號,嘉義市立蘭潭國小(2017),AirBox,chiayi_city,2024-03-23,74DA38C7CEA6,2.0,1.0,23.474,120.47,9.0,嘉義市-蘭潭國小,13.0,14.0,10.0,71.0,26.87,2024-03-23T04:00:25Z
133,04:06:26,[600]嘉義市東區小雅路419號,嘉義市立蘭潭國小(2017),AirBox,chiayi_city,2024-03-23,74DA38C7CEA6,2.0,1.0,23.474,120.47,9.0,嘉義市-蘭潭國小,12.0,13.0,10.0,71.0,27.0,2024-03-23T04:06:26Z
134,04:12:26,[600]嘉義市東區小雅路419號,嘉義市立蘭潭國小(2017),AirBox,chiayi_city,2024-03-23,74DA38C7CEA6,2.0,1.0,23.474,120.47,9.0,嘉義市-蘭潭國小,12.0,14.0,10.0,71.0,27.0,2024-03-23T04:12:26Z
135,04:18:27,[600]嘉義市東區小雅路419號,嘉義市立蘭潭國小(2017),AirBox,chiayi_city,2024-03-23,74DA38C7CEA6,2.0,1.0,23.474,120.47,9.0,嘉義市-蘭潭國小,11.0,13.0,9.0,71.0,27.12,2024-03-23T04:18:27Z
136,04:24:28,[600]嘉義市東區小雅路419號,嘉義市立蘭潭國小(2017),AirBox,chiayi_city,2024-03-23,74DA38C7CEA6,2.0,1.0,23.474,120.47,9.0,嘉義市-蘭潭國小,12.0,14.0,10.0,70.0,27.12,2024-03-23T04:24:28Z
137,04:30:28,[600]嘉義市東區小雅路419號,嘉義市立蘭潭國小(2017),AirBox,chiayi_city,2024-03-23,74DA38C7CEA6,2.0,1.0,23.474,120.47,9.0,嘉義市-蘭潭國小,13.0,15.0,10.0,71.0,27.25,2024-03-23T04:30:28Z
138,04:36:29,[600]嘉義市東區小雅路419號,嘉義市立蘭潭國小(2017),AirBox,chiayi_city,2024-03-23,74DA38C7CEA6,2.0,1.0,23.474,120.47,9.0,嘉義市-蘭潭國小,13.0,14.0,11.0,71.0,27.25,2024-03-23T04:36:29Z
139,04:42:31,[600]嘉義市東區小雅路419號,嘉義市立蘭潭國小(2017),AirBox,chiayi_city,2024-03-23,74DA38C7CEA6,2.0,1.0,23.474,120.47,9.0,嘉義市-蘭潭國小,15.0,17.0,12.0,72.0,27.37,2024-03-23T04:42:31Z